owner,sensor,date,latitude,longitude,vertical_datum,sea_water_practical_salinity,qcFlag 
COMPS,ioos:station:USF.COMPS:ANC:1,2012-01-01T00:00:00Z,28.1930,-82.7890,1.0,25.524,1111122 
COMPS,ioos:station:USF.COMPS:ANC:1,2012-01-01T00:06:00Z,28.1930,-82.7890,1.0,25.542,1111122 
COMPS,ioos:station:USF.COMPS:ANC:1,2012-01-01T00:12:00Z,28.1930,-82.7890,1.0,25.552,1111122 
COMPS,ioos:station:USF.COMPS:ANC:1,2012-01-01T00:18:00Z,28.1930,-82.7890,1.0,25.538,1111122 
COMPS,ioos:station:USF.COMPS:ANC:1,2012-01-01T00:24:00Z,28.1930,-82.7890,1.0,25.557,1111122 
COMPS,ioos:station:USF.COMPS:ANC:1,2012-01-01T00:30:00Z,28.1930,-82.7890,1.0,25.541,1111122 
COMPS,ioos:station:USF.COMPS:ANC:1,2012-01-01T00:36:00Z,28.1930,-82.7890,1.0,25.54,1111122 
COMPS,ioos:station:USF.COMPS:ANC:1,2012-01-01T00:42:00Z,28.1930,-82.7890,1.0,25.54,1111122 
COMPS,ioos:station:USF.COMPS:ANC:1,2012-01-01T00:48:00Z,28.1930,-82.7890,1.0,25.551,1111122 
COMPS,ioos:station:USF.COMPS:ANC:1,2012-01-01T00:54:00Z,28.1930,-82.7890,0.0,25.557,1111122 
COMPS,ioos:station:USF.COMPS:ANC:1,2012-01-01T01:00:00Z,28.1930,-82.7890,1.0,25.566,1111122 
COMPS,ioos:station:USF.COMPS:ANC:1,2012-01-01T01:06:00Z,28.1930,-82.7890,1.0,25.578,1111122 
COMPS,ioos:station:USF.COMPS:ANC:1,2012-01-01T01:12:00Z,28.1930,-82.7890,1.0,25.595,1111122 
COMPS,ioos:station:USF.COMPS:ANC:1,2012-01-01T01:18:00Z,28.1930,-82.7890,1.0,25.601,1111122 
COMPS,ioos:station:USF.COMPS:ANC:1,2012-01-01T01:24:00Z,28.1930,-82.7890,1.0,25.603,1111122 
COMPS,ioos:station:USF.COMPS:ANC:1,2012-01-01T01:30:00Z,28.1930,-82.7890,1.0,25.608,1111122 
COMPS,ioos:station:USF.COMPS:ANC:1,2012-01-01T01:36:00Z,28.1930,-82.7890,1.0,25.616,1111122 
COMPS,ioos:station:USF.COMPS:ANC:1,2012-01-01T01:42:00Z,28.1930,-82.7890,1.0,25.624,1111122 
COMPS,ioos:station:USF.COMPS:ANC:1,2012-01-01T01:48:00Z,28.1930,-82.7890,1.0,25.632,1111122 
COMPS,ioos:station:USF.COMPS:ANC:1,2012-01-01T01:54:00Z,28.1930,-82.7890,0.0,25.658,1111122 
COMPS,ioos:station:USF.COMPS:ANC:1,2012-01-01T02:00:00Z,28.1930,-82.7890,1.0,25.672,1111122 
COMPS,ioos:station:USF.COMPS:ANC:1,2012-01-01T02:06:00Z,28.1930,-82.7890,1.0,25.684,1111122 
COMPS,ioos:station:USF.COMPS:ANC:1,2012-01-01T02:12:00Z,28.1930,-82.7890,1.0,25.675,1111122 
COMPS,ioos:station:USF.COMPS:ANC:1,2012-01-01T02:18:00Z,28.1930,-82.7890,1.0,25.681,1111122 
COMPS,ioos:station:USF.COMPS:ANC:1,2012-01-01T02:24:00Z,28.1930,-82.7890,1.0,25.677,1111122 
COMPS,ioos:station:USF.COMPS:ANC:1,2012-01-01T02:30:00Z,28.1930,-82.7890,1.0,25.64,1111122 
COMPS,ioos:station:USF.COMPS:ANC:1,2012-01-01T02:36:00Z,28.1930,-82.7890,1.0,25.706,1111122 
COMPS,ioos:station:USF.COMPS:ANC:1,2012-01-01T02:42:00Z,28.1930,-82.7890,1.0,25.726,1111122 
COMPS,ioos:station:USF.COMPS:ANC:1,2012-01-01T02:48:00Z,28.1930,-82.7890,1.0,25.738,1111122 
COMPS,ioos:station:USF.COMPS:ANC:1,2012-01-01T02:54:00Z,28.1930,-82.7890,0.0,25.74,1111122 
COMPS,ioos:station:USF.COMPS:ANC:1,2012-01-01T03:00:00Z,28.1930,-82.7890,1.0,25.755,1111122 
COMPS,ioos:station:USF.COMPS:ANC:1,2012-01-01T03:06:00Z,28.1930,-82.7890,1.0,25.745,1111122 
COMPS,ioos:station:USF.COMPS:ANC:1,2012-01-01T03:12:00Z,28.1930,-82.7890,1.0,25.742,1111122 
COMPS,ioos:station:USF.COMPS:ANC:1,2012-01-01T03:18:00Z,28.1930,-82.7890,1.0,25.754,1111122 
COMPS,ioos:station:USF.COMPS:ANC:1,2012-01-01T03:24:00Z,28.1930,-82.7890,1.0,25.75,1111122 
COMPS,ioos:station:USF.COMPS:ANC:1,2012-01-01T03:30:00Z,28.1930,-82.7890,1.0,25.753,1111122 
COMPS,ioos:station:USF.COMPS:ANC:1,2012-01-01T03:36:00Z,28.1930,-82.7890,1.0,25.743,1111122 
COMPS,ioos:station:USF.COMPS:ANC:1,2012-01-01T03:42:00Z,28.1930,-82.7890,1.0,25.73,1111122 
COMPS,ioos:station:USF.COMPS:ANC:1,2012-01-01T03:48:00Z,28.1930,-82.7890,1.0,25.732,1111122 
COMPS,ioos:station:USF.COMPS:ANC:1,2012-01-01T03:54:00Z,28.1930,-82.7890,0.0,25.719,1111122 
COMPS,ioos:station:USF.COMPS:ANC:1,2012-01-01T04:00:00Z,28.1930,-82.7890,1.0,25.661,1111122 
COMPS,ioos:station:USF.COMPS:ANC:1,2012-01-01T04:06:00Z,28.1930,-82.7890,1.0,25.697,1111122 
COMPS,ioos:station:USF.COMPS:ANC:1,2012-01-01T04:12:00Z,28.1930,-82.7890,1.0,25.692,1111122 
COMPS,ioos:station:USF.COMPS:ANC:1,2012-01-01T04:18:00Z,28.1930,-82.7890,1.0,25.688,1111122 
COMPS,ioos:station:USF.COMPS:ANC:1,2012-01-01T04:24:00Z,28.1930,-82.7890,1.0,25.669,1111122 
COMPS,ioos:station:USF.COMPS:ANC:1,2012-01-01T04:30:00Z,28.1930,-82.7890,1.0,25.659,1111122 
COMPS,ioos:station:USF.COMPS:ANC:1,2012-01-01T04:36:00Z,28.1930,-82.7890,1.0,25.657,1111122 
COMPS,ioos:station:USF.COMPS:ANC:1,2012-01-01T04:42:00Z,28.1930,-82.7890,1.0,25.647,1111122 
COMPS,ioos:station:USF.COMPS:ANC:1,2012-01-01T04:48:00Z,28.1930,-82.7890,1.0,25.629,1111122 
COMPS,ioos:station:USF.COMPS:ANC:1,2012-01-01T04:54:00Z,28.1930,-82.7890,0.0,25.615,1111122 
COMPS,ioos:station:USF.COMPS:ANC:1,2012-01-01T05:00:00Z,28.1930,-82.7890,1.0,25.612,1111122 
COMPS,ioos:station:USF.COMPS:ANC:1,2012-01-01T05:06:00Z,28.1930,-82.7890,1.0,25.594,1111122 
COMPS,ioos:station:USF.COMPS:ANC:1,2012-01-01T05:12:00Z,28.1930,-82.7890,1.0,25.574,1111122 
COMPS,ioos:station:USF.COMPS:ANC:1,2012-01-01T05:18:00Z,28.1930,-82.7890,1.0,25.563,1111122 
COMPS,ioos:station:USF.COMPS:ANC:1,2012-01-01T05:24:00Z,28.1930,-82.7890,1.0,25.529,1111122 
COMPS,ioos:station:USF.COMPS:ANC:1,2012-01-01T05:30:00Z,28.1930,-82.7890,1.0,25.523,1111122 
COMPS,ioos:station:USF.COMPS:ANC:1,2012-01-01T05:36:00Z,28.1930,-82.7890,1.0,25.513,1111122 
COMPS,ioos:station:USF.COMPS:ANC:1,2012-01-01T05:42:00Z,28.1930,-82.7890,1.0,25.495,1111122 
COMPS,ioos:station:USF.COMPS:ANC:1,2012-01-01T05:48:00Z,28.1930,-82.7890,1.0,25.486,1111122 
COMPS,ioos:station:USF.COMPS:ANC:1,2012-01-01T05:54:00Z,28.1930,-82.7890,0.0,25.473,1111122 
COMPS,ioos:station:USF.COMPS:ANC:1,2012-01-01T06:00:00Z,28.1930,-82.7890,1.0,25.46,1111122 
COMPS,ioos:station:USF.COMPS:ANC:1,2012-01-01T06:06:00Z,28.1930,-82.7890,1.0,25.44,1111122 
COMPS,ioos:station:USF.COMPS:ANC:1,2012-01-01T06:12:00Z,28.1930,-82.7890,1.0,25.42,1111122 
COMPS,ioos:station:USF.COMPS:ANC:1,2012-01-01T06:18:00Z,28.1930,-82.7890,1.0,25.408,1111122 
COMPS,ioos:station:USF.COMPS:ANC:1,2012-01-01T06:24:00Z,28.1930,-82.7890,1.0,25.388,1111122 
COMPS,ioos:station:USF.COMPS:ANC:1,2012-01-01T06:30:00Z,28.1930,-82.7890,1.0,25.36,1111122 
COMPS,ioos:station:USF.COMPS:ANC:1,2012-01-01T06:36:00Z,28.1930,-82.7890,1.0,25.342,1111122 
COMPS,ioos:station:USF.COMPS:ANC:1,2012-01-01T06:42:00Z,28.1930,-82.7890,1.0,25.324,1111122 
COMPS,ioos:station:USF.COMPS:ANC:1,2012-01-01T06:48:00Z,28.1930,-82.7890,1.0,25.306,1111122 
COMPS,ioos:station:USF.COMPS:ANC:1,2012-01-01T06:54:00Z,28.1930,-82.7890,0.0,25.296,1111122 
COMPS,ioos:station:USF.COMPS:ANC:1,2012-01-01T07:00:00Z,28.1930,-82.7890,1.0,25.286,1111122 
COMPS,ioos:station:USF.COMPS:ANC:1,2012-01-01T07:06:00Z,28.1930,-82.7890,1.0,25.262,1111122 
COMPS,ioos:station:USF.COMPS:ANC:1,2012-01-01T07:12:00Z,28.1930,-82.7890,1.0,25.26,1111122 
COMPS,ioos:station:USF.COMPS:ANC:1,2012-01-01T07:18:00Z,28.1930,-82.7890,1.0,25.242,1111122 
COMPS,ioos:station:USF.COMPS:ANC:1,2012-01-01T07:24:00Z,28.1930,-82.7890,1.0,25.246,1111122 
COMPS,ioos:station:USF.COMPS:ANC:1,2012-01-01T07:30:00Z,28.1930,-82.7890,1.0,25.246,1111122 
COMPS,ioos:station:USF.COMPS:ANC:1,2012-01-01T07:36:00Z,28.1930,-82.7890,1.0,25.222,1111122 
COMPS,ioos:station:USF.COMPS:ANC:1,2012-01-01T07:42:00Z,28.1930,-82.7890,1.0,25.22,1111122 
COMPS,ioos:station:USF.COMPS:ANC:1,2012-01-01T07:48:00Z,28.1930,-82.7890,1.0,25.202,1111122 
COMPS,ioos:station:USF.COMPS:ANC:1,2012-01-01T07:54:00Z,28.1930,-82.7890,0.0,25.193,1111122 
COMPS,ioos:station:USF.COMPS:ANC:1,2012-01-01T08:00:00Z,28.1930,-82.7890,1.0,25.186,1111122 
COMPS,ioos:station:USF.COMPS:ANC:1,2012-01-01T08:06:00Z,28.1930,-82.7890,1.0,25.192,1111122 
COMPS,ioos:station:USF.COMPS:ANC:1,2012-01-01T08:12:00Z,28.1930,-82.7890,1.0,25.184,1111122 
COMPS,ioos:station:USF.COMPS:ANC:1,2012-01-01T08:18:00Z,28.1930,-82.7890,1.0,25.16,1111122 
COMPS,ioos:station:USF.COMPS:ANC:1,2012-01-01T08:24:00Z,28.1930,-82.7890,1.0,25.148,1111122 
COMPS,ioos:station:USF.COMPS:ANC:1,2012-01-01T08:30:00Z,28.1930,-82.7890,1.0,25.14,1111122 
COMPS,ioos:station:USF.COMPS:ANC:1,2012-01-01T08:36:00Z,28.1930,-82.7890,1.0,25.148,1111122 
COMPS,ioos:station:USF.COMPS:ANC:1,2012-01-01T08:42:00Z,28.1930,-82.7890,1.0,25.148,1111122 
COMPS,ioos:station:USF.COMPS:ANC:1,2012-01-01T08:48:00Z,28.1930,-82.7890,1.0,25.164,1111122 
COMPS,ioos:station:USF.COMPS:ANC:1,2012-01-01T08:54:00Z,28.1930,-82.7890,0.0,25.165,1111122 
COMPS,ioos:station:USF.COMPS:ANC:1,2012-01-01T09:00:00Z,28.1930,-82.7890,1.0,25.158,1111122 
COMPS,ioos:station:USF.COMPS:ANC:1,2012-01-01T09:06:00Z,28.1930,-82.7890,1.0,25.128,1111122 
COMPS,ioos:station:USF.COMPS:ANC:1,2012-01-01T09:12:00Z,28.1930,-82.7890,1.0,25.184,1111122 
COMPS,ioos:station:USF.COMPS:ANC:1,2012-01-01T09:18:00Z,28.1930,-82.7890,1.0,25.2,1111122 
COMPS,ioos:station:USF.COMPS:ANC:1,2012-01-01T09:24:00Z,28.1930,-82.7890,1.0,25.21,1111122 
COMPS,ioos:station:USF.COMPS:ANC:1,2012-01-01T09:30:00Z,28.1930,-82.7890,1.0,25.214,1111122 
COMPS,ioos:station:USF.COMPS:ANC:1,2012-01-01T09:36:00Z,28.1930,-82.7890,1.0,25.238,1111122 
COMPS,ioos:station:USF.COMPS:ANC:1,2012-01-01T09:42:00Z,28.1930,-82.7890,1.0,25.254,1111122 
COMPS,ioos:station:USF.COMPS:ANC:1,2012-01-01T09:48:00Z,28.1930,-82.7890,1.0,25.271,1111122 
COMPS,ioos:station:USF.COMPS:ANC:1,2012-01-01T09:54:00Z,28.1930,-82.7890,0.0,25.289,1111122 
COMPS,ioos:station:USF.COMPS:ANC:1,2012-01-01T10:00:00Z,28.1930,-82.7890,1.0,25.315,1111122 
COMPS,ioos:station:USF.COMPS:ANC:1,2012-01-01T10:06:00Z,28.1930,-82.7890,1.0,25.331,1111122 
COMPS,ioos:station:USF.COMPS:ANC:1,2012-01-01T10:12:00Z,28.1930,-82.7890,1.0,25.349,1111122 
COMPS,ioos:station:USF.COMPS:ANC:1,2012-01-01T10:18:00Z,28.1930,-82.7890,1.0,25.367,1111122 
COMPS,ioos:station:USF.COMPS:ANC:1,2012-01-01T10:24:00Z,28.1930,-82.7890,1.0,25.383,1111122 
COMPS,ioos:station:USF.COMPS:ANC:1,2012-01-01T10:30:00Z,28.1930,-82.7890,1.0,25.407,1111122 
COMPS,ioos:station:USF.COMPS:ANC:1,2012-01-01T10:36:00Z,28.1930,-82.7890,1.0,25.415,1111122 
COMPS,ioos:station:USF.COMPS:ANC:1,2012-01-01T10:42:00Z,28.1930,-82.7890,1.0,25.439,1111122 
COMPS,ioos:station:USF.COMPS:ANC:1,2012-01-01T10:48:00Z,28.1930,-82.7890,1.0,25.475,1111122 
COMPS,ioos:station:USF.COMPS:ANC:1,2012-01-01T10:54:00Z,28.1930,-82.7890,0.0,25.503,1111122 
COMPS,ioos:station:USF.COMPS:ANC:1,2012-01-01T11:00:00Z,28.1930,-82.7890,1.0,25.544,1111122 
COMPS,ioos:station:USF.COMPS:ANC:1,2012-01-01T11:06:00Z,28.1930,-82.7890,1.0,25.544,1111122 
COMPS,ioos:station:USF.COMPS:ANC:1,2012-01-01T11:12:00Z,28.1930,-82.7890,1.0,25.558,1111122 
COMPS,ioos:station:USF.COMPS:ANC:1,2012-01-01T11:18:00Z,28.1930,-82.7890,1.0,25.564,1111122 
COMPS,ioos:station:USF.COMPS:ANC:1,2012-01-01T11:24:00Z,28.1930,-82.7890,1.0,25.579,1111122 
COMPS,ioos:station:USF.COMPS:ANC:1,2012-01-01T11:30:00Z,28.1930,-82.7890,1.0,25.609,1111122 
COMPS,ioos:station:USF.COMPS:ANC:1,2012-01-01T11:36:00Z,28.1930,-82.7890,1.0,25.636,1111122 
COMPS,ioos:station:USF.COMPS:ANC:1,2012-01-01T11:42:00Z,28.1930,-82.7890,1.0,25.636,1111122 
COMPS,ioos:station:USF.COMPS:ANC:1,2012-01-01T11:48:00Z,28.1930,-82.7890,1.0,25.636,1111122 
COMPS,ioos:station:USF.COMPS:ANC:1,2012-01-01T11:54:00Z,28.1930,-82.7890,0.0,25.635,1111122 
COMPS,ioos:station:USF.COMPS:ANC:1,2012-01-01T12:00:00Z,28.1930,-82.7890,1.0,25.642,1111122 
COMPS,ioos:station:USF.COMPS:ANC:1,2012-01-01T12:06:00Z,28.1930,-82.7890,1.0,25.654,1111122 
COMPS,ioos:station:USF.COMPS:ANC:1,2012-01-01T12:12:00Z,28.1930,-82.7890,1.0,25.66,1111122 
COMPS,ioos:station:USF.COMPS:ANC:1,2012-01-01T12:18:00Z,28.1930,-82.7890,1.0,25.667,1111122 
COMPS,ioos:station:USF.COMPS:ANC:1,2012-01-01T12:24:00Z,28.1930,-82.7890,1.0,25.667,1111122 
COMPS,ioos:station:USF.COMPS:ANC:1,2012-01-01T12:30:00Z,28.1930,-82.7890,1.0,25.673,1111122 
COMPS,ioos:station:USF.COMPS:ANC:1,2012-01-01T12:36:00Z,28.1930,-82.7890,1.0,25.657,1111122 
COMPS,ioos:station:USF.COMPS:ANC:1,2012-01-01T12:42:00Z,28.1930,-82.7890,1.0,25.671,1111122 
COMPS,ioos:station:USF.COMPS:ANC:1,2012-01-01T12:48:00Z,28.1930,-82.7890,1.0,25.685,1111122 
COMPS,ioos:station:USF.COMPS:ANC:1,2012-01-01T12:54:00Z,28.1930,-82.7890,0.0,25.696,1111122 
COMPS,ioos:station:USF.COMPS:ANC:1,2012-01-01T13:00:00Z,28.1930,-82.7890,1.0,25.698,1111122 
COMPS,ioos:station:USF.COMPS:ANC:1,2012-01-01T13:06:00Z,28.1930,-82.7890,1.0,25.69,1111122 
COMPS,ioos:station:USF.COMPS:ANC:1,2012-01-01T13:12:00Z,28.1930,-82.7890,1.0,25.696,1111122 
COMPS,ioos:station:USF.COMPS:ANC:1,2012-01-01T13:18:00Z,28.1930,-82.7890,1.0,25.686,1111122 
COMPS,ioos:station:USF.COMPS:ANC:1,2012-01-01T13:24:00Z,28.1930,-82.7890,1.0,25.7,1111122 
COMPS,ioos:station:USF.COMPS:ANC:1,2012-01-01T13:30:00Z,28.1930,-82.7890,1.0,25.698,1111122 
COMPS,ioos:station:USF.COMPS:ANC:1,2012-01-01T13:36:00Z,28.1930,-82.7890,1.0,25.704,1111122 
COMPS,ioos:station:USF.COMPS:ANC:1,2012-01-01T13:42:00Z,28.1930,-82.7890,1.0,25.638,1111122 
COMPS,ioos:station:USF.COMPS:ANC:1,2012-01-01T13:48:00Z,28.1930,-82.7890,1.0,25.717,1111122 
COMPS,ioos:station:USF.COMPS:ANC:1,2012-01-01T13:54:00Z,28.1930,-82.7890,0.0,25.72,1111122 
COMPS,ioos:station:USF.COMPS:ANC:1,2012-01-01T14:00:00Z,28.1930,-82.7890,1.0,25.717,1111122 
COMPS,ioos:station:USF.COMPS:ANC:1,2012-01-01T14:06:00Z,28.1930,-82.7890,1.0,25.717,1111122 
COMPS,ioos:station:USF.COMPS:ANC:1,2012-01-01T14:12:00Z,28.1930,-82.7890,1.0,25.717,1111122 
COMPS,ioos:station:USF.COMPS:ANC:1,2012-01-01T14:18:00Z,28.1930,-82.7890,1.0,25.725,1111122 
COMPS,ioos:station:USF.COMPS:ANC:1,2012-01-01T14:24:00Z,28.1930,-82.7890,1.0,25.733,1111122 
COMPS,ioos:station:USF.COMPS:ANC:1,2012-01-01T14:30:00Z,28.1930,-82.7890,1.0,25.733,1111122 
COMPS,ioos:station:USF.COMPS:ANC:1,2012-01-01T14:36:00Z,28.1930,-82.7890,1.0,25.741,1111122 
COMPS,ioos:station:USF.COMPS:ANC:1,2012-01-01T14:42:00Z,28.1930,-82.7890,1.0,25.741,1111122 
COMPS,ioos:station:USF.COMPS:ANC:1,2012-01-01T14:48:00Z,28.1930,-82.7890,1.0,25.729,1111122 
COMPS,ioos:station:USF.COMPS:ANC:1,2012-01-01T14:54:00Z,28.1930,-82.7890,0.0,25.742,1111122 
COMPS,ioos:station:USF.COMPS:ANC:1,2012-01-01T15:00:00Z,28.1930,-82.7890,1.0,25.745,1111122 
COMPS,ioos:station:USF.COMPS:ANC:1,2012-01-01T15:06:00Z,28.1930,-82.7890,1.0,25.759,1111122 
COMPS,ioos:station:USF.COMPS:ANC:1,2012-01-01T15:12:00Z,28.1930,-82.7890,1.0,25.769,1111122 
COMPS,ioos:station:USF.COMPS:ANC:1,2012-01-01T15:18:00Z,28.1930,-82.7890,1.0,25.757,1111122 
COMPS,ioos:station:USF.COMPS:ANC:1,2012-01-01T15:24:00Z,28.1930,-82.7890,1.0,25.773,1111122 
COMPS,ioos:station:USF.COMPS:ANC:1,2012-01-01T15:30:00Z,28.1930,-82.7890,1.0,25.769,1111122 
COMPS,ioos:station:USF.COMPS:ANC:1,2012-01-01T15:36:00Z,28.1930,-82.7890,1.0,25.77,1111122 
COMPS,ioos:station:USF.COMPS:ANC:1,2012-01-01T15:42:00Z,28.1930,-82.7890,1.0,25.764,1111122 
COMPS,ioos:station:USF.COMPS:ANC:1,2012-01-01T15:48:00Z,28.1930,-82.7890,1.0,25.752,1111122 
COMPS,ioos:station:USF.COMPS:ANC:1,2012-01-01T15:54:00Z,28.1930,-82.7890,0.0,25.748,1111122 
COMPS,ioos:station:USF.COMPS:ANC:1,2012-01-01T16:00:00Z,28.1930,-82.7890,1.0,25.739,1111122 
COMPS,ioos:station:USF.COMPS:ANC:1,2012-01-01T16:06:00Z,28.1930,-82.7890,1.0,25.733,1111122 
COMPS,ioos:station:USF.COMPS:ANC:1,2012-01-01T16:12:00Z,28.1930,-82.7890,1.0,25.727,1111122 
COMPS,ioos:station:USF.COMPS:ANC:1,2012-01-01T16:18:00Z,28.1930,-82.7890,1.0,25.714,1111122 
COMPS,ioos:station:USF.COMPS:ANC:1,2012-01-01T16:24:00Z,28.1930,-82.7890,1.0,25.708,1111122 
COMPS,ioos:station:USF.COMPS:ANC:1,2012-01-01T16:30:00Z,28.1930,-82.7890,1.0,25.702,1111122 
COMPS,ioos:station:USF.COMPS:ANC:1,2012-01-01T16:36:00Z,28.1930,-82.7890,1.0,25.69,1111122 
COMPS,ioos:station:USF.COMPS:ANC:1,2012-01-01T16:42:00Z,28.1930,-82.7890,1.0,25.683,1111122 
COMPS,ioos:station:USF.COMPS:ANC:1,2012-01-01T16:48:00Z,28.1930,-82.7890,1.0,25.685,1111122 
COMPS,ioos:station:USF.COMPS:ANC:1,2012-01-01T16:54:00Z,28.1930,-82.7890,0.0,25.674,1111122 
COMPS,ioos:station:USF.COMPS:ANC:1,2012-01-01T17:00:00Z,28.1930,-82.7890,1.0,25.665,1111122 
COMPS,ioos:station:USF.COMPS:ANC:1,2012-01-01T17:06:00Z,28.1930,-82.7890,1.0,25.659,1111122 
COMPS,ioos:station:USF.COMPS:ANC:1,2012-01-01T17:12:00Z,28.1930,-82.7890,1.0,25.622,1111122 
COMPS,ioos:station:USF.COMPS:ANC:1,2012-01-01T17:18:00Z,28.1930,-82.7890,1.0,25.56,1111122 
COMPS,ioos:station:USF.COMPS:ANC:1,2012-01-01T17:24:00Z,28.1930,-82.7890,1.0,25.529,1111122 
COMPS,ioos:station:USF.COMPS:ANC:1,2012-01-01T17:30:00Z,28.1930,-82.7890,1.0,25.525,1111122 
COMPS,ioos:station:USF.COMPS:ANC:1,2012-01-01T17:36:00Z,28.1930,-82.7890,1.0,25.519,1111122 
COMPS,ioos:station:USF.COMPS:ANC:1,2012-01-01T17:42:00Z,28.1930,-82.7890,1.0,25.507,1111122 
COMPS,ioos:station:USF.COMPS:ANC:1,2012-01-01T17:48:00Z,28.1930,-82.7890,1.0,25.486,1111122 
COMPS,ioos:station:USF.COMPS:ANC:1,2012-01-01T17:54:00Z,28.1930,-82.7890,0.0,25.434,1111122 
COMPS,ioos:station:USF.COMPS:ANC:1,2012-01-01T18:00:00Z,28.1930,-82.7890,1.0,25.276,1111122 
COMPS,ioos:station:USF.COMPS:ANC:1,2012-01-01T18:06:00Z,28.1930,-82.7890,1.0,25.269,1111122 
COMPS,ioos:station:USF.COMPS:ANC:1,2012-01-01T18:12:00Z,28.1930,-82.7890,1.0,25.239,1111122 
COMPS,ioos:station:USF.COMPS:ANC:1,2012-01-01T18:18:00Z,28.1930,-82.7890,1.0,25.201,1111122 
COMPS,ioos:station:USF.COMPS:ANC:1,2012-01-01T18:24:00Z,28.1930,-82.7890,1.0,25.141,1111122 
COMPS,ioos:station:USF.COMPS:ANC:1,2012-01-01T18:30:00Z,28.1930,-82.7890,1.0,25.159,1111122 
COMPS,ioos:station:USF.COMPS:ANC:1,2012-01-01T18:36:00Z,28.1930,-82.7890,1.0,25.147,1111122 
COMPS,ioos:station:USF.COMPS:ANC:1,2012-01-01T18:42:00Z,28.1930,-82.7890,1.0,25.103,1111122 
COMPS,ioos:station:USF.COMPS:ANC:1,2012-01-01T18:48:00Z,28.1930,-82.7890,1.0,25.077,1111122 
COMPS,ioos:station:USF.COMPS:ANC:1,2012-01-01T18:54:00Z,28.1930,-82.7890,0.0,25.043,1111122 
COMPS,ioos:station:USF.COMPS:ANC:1,2012-01-01T19:00:00Z,28.1930,-82.7890,1.0,25.031,1111122 
COMPS,ioos:station:USF.COMPS:ANC:1,2012-01-01T19:06:00Z,28.1930,-82.7890,1.0,25.037,1111122 
COMPS,ioos:station:USF.COMPS:ANC:1,2012-01-01T19:12:00Z,28.1930,-82.7890,1.0,25.051,1111122 
COMPS,ioos:station:USF.COMPS:ANC:1,2012-01-01T19:18:00Z,28.1930,-82.7890,1.0,25.049,1111122 
COMPS,ioos:station:USF.COMPS:ANC:1,2012-01-01T19:24:00Z,28.1930,-82.7890,1.0,25.059,1111122 
COMPS,ioos:station:USF.COMPS:ANC:1,2012-01-01T19:30:00Z,28.1930,-82.7890,1.0,25.06,1111122 
COMPS,ioos:station:USF.COMPS:ANC:1,2012-01-01T19:36:00Z,28.1930,-82.7890,1.0,25.076,1111122 
COMPS,ioos:station:USF.COMPS:ANC:1,2012-01-01T19:42:00Z,28.1930,-82.7890,1.0,25.078,1111122 
COMPS,ioos:station:USF.COMPS:ANC:1,2012-01-01T19:48:00Z,28.1930,-82.7890,1.0,25.088,1111122 
COMPS,ioos:station:USF.COMPS:ANC:1,2012-01-01T19:54:00Z,28.1930,-82.7890,0.0,25.095,1111122 
COMPS,ioos:station:USF.COMPS:ANC:1,2012-01-01T20:00:00Z,28.1930,-82.7890,1.0,25.104,1111122 
COMPS,ioos:station:USF.COMPS:ANC:1,2012-01-01T20:06:00Z,28.1930,-82.7890,1.0,25.12,1111122 
COMPS,ioos:station:USF.COMPS:ANC:1,2012-01-01T20:12:00Z,28.1930,-82.7890,1.0,25.12,1111122 
COMPS,ioos:station:USF.COMPS:ANC:1,2012-01-01T20:18:00Z,28.1930,-82.7890,1.0,25.152,1111122 
COMPS,ioos:station:USF.COMPS:ANC:1,2012-01-01T20:24:00Z,28.1930,-82.7890,1.0,25.16,1111122 
COMPS,ioos:station:USF.COMPS:ANC:1,2012-01-01T20:30:00Z,28.1930,-82.7890,1.0,25.212,1111122 
COMPS,ioos:station:USF.COMPS:ANC:1,2012-01-01T20:36:00Z,28.1930,-82.7890,1.0,25.307,1111122 
COMPS,ioos:station:USF.COMPS:ANC:1,2012-01-01T20:42:00Z,28.1930,-82.7890,1.0,25.323,1111122 
COMPS,ioos:station:USF.COMPS:ANC:1,2012-01-01T20:48:00Z,28.1930,-82.7890,1.0,25.331,1111122 
COMPS,ioos:station:USF.COMPS:ANC:1,2012-01-01T20:54:00Z,28.1930,-82.7890,0.0,25.355,1111122 
COMPS,ioos:station:USF.COMPS:ANC:1,2012-01-01T21:00:00Z,28.1930,-82.7890,1.0,25.385,1111122 
COMPS,ioos:station:USF.COMPS:ANC:1,2012-01-01T21:06:00Z,28.1930,-82.7890,1.0,25.449,1111122 
COMPS,ioos:station:USF.COMPS:ANC:1,2012-01-01T21:12:00Z,28.1930,-82.7890,1.0,25.491,1111122 
COMPS,ioos:station:USF.COMPS:ANC:1,2012-01-01T21:18:00Z,28.1930,-82.7890,1.0,25.5,1111122 
COMPS,ioos:station:USF.COMPS:ANC:1,2012-01-01T21:24:00Z,28.1930,-82.7890,1.0,25.494,1111122 
COMPS,ioos:station:USF.COMPS:ANC:1,2012-01-01T21:30:00Z,28.1930,-82.7890,1.0,25.494,1111122 
COMPS,ioos:station:USF.COMPS:ANC:1,2012-01-01T21:36:00Z,28.1930,-82.7890,1.0,25.512,1111122 
COMPS,ioos:station:USF.COMPS:ANC:1,2012-01-01T21:42:00Z,28.1930,-82.7890,1.0,25.526,1111122 
COMPS,ioos:station:USF.COMPS:ANC:1,2012-01-01T21:48:00Z,28.1930,-82.7890,1.0,25.531,1111122 
COMPS,ioos:station:USF.COMPS:ANC:1,2012-01-01T21:54:00Z,28.1930,-82.7890,0.0,25.547,1111122 
COMPS,ioos:station:USF.COMPS:ANC:1,2012-01-01T22:00:00Z,28.1930,-82.7890,1.0,25.553,1111122 
COMPS,ioos:station:USF.COMPS:ANC:1,2012-01-01T22:06:00Z,28.1930,-82.7890,1.0,25.563,1111122 
COMPS,ioos:station:USF.COMPS:ANC:1,2012-01-01T22:12:00Z,28.1930,-82.7890,1.0,25.58,1111122 
COMPS,ioos:station:USF.COMPS:ANC:1,2012-01-01T22:18:00Z,28.1930,-82.7890,1.0,25.576,1111122 
COMPS,ioos:station:USF.COMPS:ANC:1,2012-01-01T22:24:00Z,28.1930,-82.7890,1.0,25.596,1111122 
COMPS,ioos:station:USF.COMPS:ANC:1,2012-01-01T22:30:00Z,28.1930,-82.7890,1.0,25.607,1111122 
COMPS,ioos:station:USF.COMPS:ANC:1,2012-01-01T22:36:00Z,28.1930,-82.7890,1.0,25.659,1111122 
COMPS,ioos:station:USF.COMPS:ANC:1,2012-01-01T22:42:00Z,28.1930,-82.7890,1.0,25.674,1111122 
COMPS,ioos:station:USF.COMPS:ANC:1,2012-01-01T22:48:00Z,28.1930,-82.7890,1.0,25.665,1111122 
COMPS,ioos:station:USF.COMPS:ANC:1,2012-01-01T22:54:00Z,28.1930,-82.7890,0.0,25.703,1111122 
COMPS,ioos:station:USF.COMPS:ANC:1,2012-01-01T23:00:00Z,28.1930,-82.7890,1.0,25.68,1111122 
COMPS,ioos:station:USF.COMPS:ANC:1,2012-01-01T23:06:00Z,28.1930,-82.7890,1.0,25.69,1111122 
COMPS,ioos:station:USF.COMPS:ANC:1,2012-01-01T23:12:00Z,28.1930,-82.7890,1.0,25.67,1111122 
COMPS,ioos:station:USF.COMPS:ANC:1,2012-01-01T23:18:00Z,28.1930,-82.7890,1.0,25.689,1111122 
COMPS,ioos:station:USF.COMPS:ANC:1,2012-01-01T23:24:00Z,28.1930,-82.7890,1.0,25.691,1111122 
COMPS,ioos:station:USF.COMPS:ANC:1,2012-01-01T23:30:00Z,28.1930,-82.7890,1.0,25.679,1111122 
COMPS,ioos:station:USF.COMPS:ANC:1,2012-01-01T23:36:00Z,28.1930,-82.7890,1.0,25.681,1111122 
COMPS,ioos:station:USF.COMPS:ANC:1,2012-01-01T23:42:00Z,28.1930,-82.7890,1.0,25.712,1111122 
COMPS,ioos:station:USF.COMPS:ANC:1,2012-01-01T23:48:00Z,28.1930,-82.7890,1.0,25.603,1111122 
COMPS,ioos:station:USF.COMPS:ANC:1,2012-01-01T23:54:00Z,28.1930,-82.7890,0.0,25.756,1111122 
COMPS,ioos:station:USF.COMPS:ANC:1,2012-01-02T00:00:00Z,28.1930,-82.7890,1.0,25.785,1111122 
COMPS,ioos:station:USF.COMPS:ANC:1,2012-01-02T00:06:00Z,28.1930,-82.7890,1.0,25.742,1111122 
COMPS,ioos:station:USF.COMPS:ANC:1,2012-01-02T00:12:00Z,28.1930,-82.7890,1.0,25.724,1111122 
COMPS,ioos:station:USF.COMPS:ANC:1,2012-01-02T00:18:00Z,28.1930,-82.7890,1.0,25.668,1111122 
COMPS,ioos:station:USF.COMPS:ANC:1,2012-01-02T00:24:00Z,28.1930,-82.7890,1.0,25.747,1111122 
COMPS,ioos:station:USF.COMPS:ANC:1,2012-01-02T00:30:00Z,28.1930,-82.7890,1.0,25.741,1111122 
COMPS,ioos:station:USF.COMPS:ANC:1,2012-01-02T00:36:00Z,28.1930,-82.7890,1.0,25.729,1111122 
COMPS,ioos:station:USF.COMPS:ANC:1,2012-01-02T00:42:00Z,28.1930,-82.7890,1.0,25.738,1111122 
COMPS,ioos:station:USF.COMPS:ANC:1,2012-01-02T00:48:00Z,28.1930,-82.7890,1.0,25.748,1111122 
COMPS,ioos:station:USF.COMPS:ANC:1,2012-01-02T00:54:00Z,28.1930,-82.7890,0.0,25.737,1111122 
COMPS,ioos:station:USF.COMPS:ANC:1,2012-01-02T01:00:00Z,28.1930,-82.7890,1.0,25.736,1111122 
COMPS,ioos:station:USF.COMPS:ANC:1,2012-01-02T01:06:00Z,28.1930,-82.7890,1.0,25.753,1111122 
COMPS,ioos:station:USF.COMPS:ANC:1,2012-01-02T01:12:00Z,28.1930,-82.7890,1.0,25.779,1111122 
COMPS,ioos:station:USF.COMPS:ANC:1,2012-01-02T01:18:00Z,28.1930,-82.7890,1.0,25.766,1111122 
COMPS,ioos:station:USF.COMPS:ANC:1,2012-01-02T01:24:00Z,28.1930,-82.7890,1.0,25.759,1111122 
COMPS,ioos:station:USF.COMPS:ANC:1,2012-01-02T01:30:00Z,28.1930,-82.7890,1.0,25.733,1111122 
COMPS,ioos:station:USF.COMPS:ANC:1,2012-01-02T01:36:00Z,28.1930,-82.7890,1.0,25.765,1111122 